Retour au catalogue

STARLINK-2427

ActifCommunicationsVLEO
NORAD 47837·PAYLOAD·🇺🇸 United States

Lancé Mar 11, 2021 depuis Cape Canaveral Space Force Station

Loading…

Prochains Passages (prochaines 24 heures)

TLE

FraisSource: CelesTrak SupGP

Époque: Sep 15, 2026, 00:27 UTC

1 47837C 21018BC  26258.01923611  .00058339  00000+0  18050-2 0  2588
2 47837  53.1587  77.8407 0000324 342.7368 337.9260 15.32904071    18

Suivez STARLINK-2427 en temps réel avec AllMySat

Download on the App Store